timestamp,surface_pressure_avg,surface_temp_avg,battery_voltage,lat,long
2023-08-16 00:09:00+00:00,360.608,17.59,12.33,47.84626,-54.09684
2023-08-16 00:19:00+00:00,358.88800000000015,17.7,12.33,47.84626,-54.09684
2023-08-16 00:29:00+00:00,355.278,17.76,12.33,47.84626,-54.09684
2023-08-16 00:39:00+00:00,354.1563,17.7,12.33,47.84626,-54.09684
2023-08-16 00:49:00+00:00,351.7396,17.6,12.33,47.84626,-54.09684
2023-08-16 00:59:00+00:00,344.6447,17.56,12.33,47.84626,-54.09684
2023-08-16 01:09:00+00:00,338.853,17.6,12.33,47.84626,-54.09684
2023-08-16 01:19:00+00:00,336.6446,17.62,12.33,47.84626,-54.09684
2023-08-16 01:29:00+00:00,333.4846,17.6,12.33,47.84626,-54.09684
2023-08-16 01:39:00+00:00,324.5347,17.68,12.33,47.84626,-54.09684
2023-08-16 01:49:00+00:00,317.128,17.78,12.33,47.84626,-54.09684
2023-08-16 01:59:00+00:00,316.2363,17.8,12.33,47.84626,-54.09684
2023-08-16 02:09:00+00:00,313.053,17.8,12.33,47.84626,-54.09684
2023-08-16 02:19:00+00:00,301.0514,17.89,12.33,47.84626,-54.09684
2023-08-16 02:29:00+00:00,291.1431,17.96,12.33,47.84626,-54.09684
2023-08-16 02:39:00+00:00,286.008,17.98,12.33,47.84626,-54.09684
2023-08-16 02:49:00+00:00,278.7214,17.91,12.33,47.84626,-54.09684
2023-08-16 02:59:00+00:00,267.3564,18.0,12.33,47.84626,-54.09684
2023-08-16 03:09:00+00:00,262.8531,18.08,12.33,47.84626,-54.09684
2023-08-16 03:19:00+00:00,257.9247,18.1,12.33,47.84626,-54.09684
2023-08-16 03:29:00+00:00,253.1731,18.14,12.33,47.84626,-54.09684
2023-08-16 03:39:00+00:00,244.3997,18.2,12.33,47.84626,-54.09684
2023-08-16 03:49:00+00:00,237.0464,18.29,12.33,47.84626,-54.09684
2023-08-16 03:59:00+00:00,226.9764,18.3,12.33,47.84626,-54.09684
2023-08-16 04:09:00+00:00,222.0297,18.3,12.33,47.84626,-54.09684
2023-08-16 04:19:00+00:00,219.8481,18.3,12.33,47.84626,-54.09684
2023-08-16 04:29:00+00:00,218.3231,18.3,12.33,47.84626,-54.09684
2023-08-16 04:39:00+00:00,216.1048,18.33,12.33,47.84626,-54.09684
2023-08-16 04:49:00+00:00,212.3231,18.37,12.33,47.84626,-54.09684
2023-08-16 04:59:00+00:00,207.7731,18.4,12.33,47.84626,-54.09684
2023-08-16 05:09:00+00:00,203.9314,18.4,12.33,47.84626,-54.09684
2023-08-16 05:19:00+00:00,200.3498,18.4,12.33,47.84626,-54.09684
2023-08-16 05:29:00+00:00,199.9197,18.4,12.33,47.84626,-54.09684
2023-08-16 05:39:00+00:00,197.6048,18.4,12.33,47.84626,-54.09684
2023-08-16 05:49:00+00:00,198.2215,18.4,12.33,47.84626,-54.09684
2023-08-16 05:59:00+00:00,201.0664,18.4,12.33,47.84626,-54.09684
2023-08-16 06:09:00+00:00,203.0648,18.43,12.33,47.84626,-54.09684
2023-08-16 06:19:00+00:00,202.7714,18.44,12.33,47.84626,-54.09684
2023-08-16 06:29:00+00:00,202.6847,18.45,12.33,47.84626,-54.09684
2023-08-16 06:39:00+00:00,203.7515,18.46,12.33,47.84626,-54.09684
2023-08-16 06:49:00+00:00,206.8015,18.44,12.33,47.84626,-54.09684
2023-08-16 06:59:00+00:00,212.6381,18.42,12.33,47.84626,-54.09684
2023-08-16 07:09:00+00:00,212.5248,18.41,12.33,47.84626,-54.09684
2023-08-16 07:19:00+00:00,209.7964,18.41,12.33,47.84626,-54.09684
2023-08-16 07:29:00+00:00,212.4781,18.41,12.33,47.84626,-54.09684
2023-08-16 07:39:00+00:00,219.9431,18.4,12.33,47.84626,-54.09684
2023-08-16 07:49:00+00:00,229.5314,18.4,12.33,47.84626,-54.09684
2023-08-16 07:59:00+00:00,240.3514,18.4,12.33,47.84626,-54.09684
2023-08-16 08:09:00+00:00,241.0831,18.4,12.33,47.84626,-54.09684
2023-08-16 08:19:00+00:00,239.7698,18.4,12.33,47.84626,-54.09684
2023-08-16 08:29:00+00:00,243.8864,18.4,12.33,47.84626,-54.09684
2023-08-16 08:39:00+00:00,251.5614,18.4,12.33,47.84626,-54.09684
2023-08-16 08:49:00+00:00,254.4898,18.3,12.33,47.84626,-54.09684
2023-08-16 08:59:00+00:00,256.3848,18.3,12.33,47.84626,-54.09684
2023-08-16 09:09:00+00:00,261.4597,18.29,12.33,47.84626,-54.09684
2023-08-16 09:19:00+00:00,271.6997,18.2,12.33,47.84626,-54.09684
2023-08-16 09:29:00+00:00,276.5897,18.26,12.33,47.84626,-54.09684
2023-08-16 09:39:00+00:00,280.3781,18.2,12.33,47.84626,-54.09684
2023-08-16 09:49:00+00:00,287.9064,18.2,12.33,47.84626,-54.09684
2023-08-16 09:59:00+00:00,292.348,18.2,12.33,47.84626,-54.09684
2023-08-16 10:09:00+00:00,292.4097,18.2,12.33,47.84626,-54.09684
2023-08-16 10:19:01+00:00,300.5613,18.26,12.33,47.84626,-54.09684
2023-08-16 10:29:01+00:00,308.4031,18.2,12.33,47.84626,-54.09684
2023-08-16 10:39:01+00:00,310.8313,18.1,12.33,47.84626,-54.09684
2023-08-16 10:49:01+00:00,313.5347,18.1,12.33,47.84626,-54.09684
2023-08-16 10:59:01+00:00,320.7963,18.1,12.33,47.84626,-54.09684
2023-08-16 11:09:01+00:00,321.5096,18.1,12.33,47.84626,-54.09684
2023-08-16 11:19:00+00:00,323.3896,18.13,12.33,47.84626,-54.09684
2023-08-16 11:29:00+00:00,327.2147,18.2,12.33,47.84626,-54.09684
2023-08-16 11:39:00+00:00,329.4597,18.2,12.33,47.84626,-54.09684
2023-08-16 11:49:00+00:00,324.8347,18.18,12.33,47.84626,-54.09684
2023-08-16 11:59:00+00:00,325.368,18.23,12.33,47.84626,-54.09684
2023-08-16 12:09:00+00:00,328.4163,18.2,12.33,47.84626,-54.09684
2023-08-16 12:19:00+00:00,328.8497,18.19,12.49,47.84626,-54.09684
2023-08-16 12:29:00+00:00,323.3346,18.22,12.49,47.84626,-54.09684
2023-08-16 12:39:00+00:00,322.168,18.36,12.49,47.84626,-54.09684
2023-08-16 12:49:00+00:00,321.3181,18.3,12.49,47.84626,-54.09684
2023-08-16 12:59:00+00:00,313.163,18.3,12.49,47.84626,-54.09684
2023-08-16 13:09:00+00:00,307.2997,18.39,12.49,47.84626,-54.09684
2023-08-16 13:19:00+00:00,306.4847,18.4,12.41,47.84626,-54.09684
2023-08-16 13:29:00+00:00,303.343,18.38,12.41,47.84626,-54.09684
2023-08-16 13:39:00+00:00,298.6364,18.35,12.41,47.84626,-54.09684
2023-08-16 13:49:00+00:00,296.2297,18.38,12.41,47.84626,-54.09684
2023-08-16 13:59:00+00:00,291.1613,18.39,12.41,47.84626,-54.09684
2023-08-16 14:09:00+00:00,286.2197,18.39,12.41,47.84626,-54.09684
2023-08-16 14:19:00+00:00,287.3898,18.4,12.49,47.84626,-54.09684
2023-08-16 14:29:00+00:00,282.7831,18.4,12.49,47.84626,-54.09684
2023-08-16 14:39:00+00:00,272.2748,18.48,12.49,47.84626,-54.09684
2023-08-16 14:49:00+00:00,266.7664,18.48,12.49,47.84626,-54.09684
2023-08-16 14:59:00+00:00,259.6864,18.47,12.49,47.84626,-54.09684
2023-08-16 15:09:00+00:00,247.8097,18.48,12.49,47.84626,-54.09684
2023-08-16 15:19:00+00:00,242.0997,18.49,12.49,47.84626,-54.09684
2023-08-16 15:29:00+00:00,239.5314,18.5,12.49,47.84626,-54.09684
2023-08-16 15:39:00+00:00,229.8198,18.5,12.49,47.84626,-54.09684
2023-08-16 15:49:00+00:00,219.2631,18.5,12.49,47.84626,-54.09684
2023-08-16 15:59:00+00:00,217.3448,18.5,12.49,47.84626,-54.09684
2023-08-16 16:09:00+00:00,214.7231,18.53,12.49,47.84626,-54.09684
2023-08-16 16:19:00+00:00,206.1415,18.59,12.41,47.84626,-54.09684
2023-08-16 16:29:00+00:00,198.5764,18.6,12.41,47.84626,-54.09684
2023-08-16 16:39:00+00:00,195.7347,18.6,12.41,47.84626,-54.09684
2023-08-16 16:49:00+00:00,194.9582,18.6,12.41,47.84626,-54.09684
2023-08-16 16:59:00+00:00,194.0598,18.62,12.41,47.84626,-54.09684
2023-08-16 17:09:00+00:00,190.7581,18.62,12.41,47.84626,-54.09684
2023-08-16 17:19:00+00:00,188.6881,18.66,12.41,47.84626,-54.09684
2023-08-16 17:29:00+00:00,191.7048,18.68,12.41,47.84626,-54.09684
2023-08-16 17:39:00+00:00,192.0698,18.7,12.41,47.84626,-54.09684
2023-08-16 17:49:00+00:00,190.2098,18.7,12.41,47.84626,-54.09684
2023-08-16 17:59:00+00:00,189.9265,18.7,12.41,47.84626,-54.09684
2023-08-16 18:09:00+00:00,190.1365,18.7,12.41,47.84626,-54.09684
2023-08-16 18:19:01+00:00,191.0415,18.7,12.41,47.84626,-54.09684
2023-08-16 18:29:01+00:00,190.3398,18.7,12.41,47.84626,-54.09684
2023-08-16 18:39:01+00:00,188.0015,18.72,12.41,47.84626,-54.09684
2023-08-16 18:49:01+00:00,191.0948,18.77,12.41,47.84626,-54.09684
2023-08-16 18:59:01+00:00,194.5481,18.79,12.41,47.84626,-54.09684
2023-08-16 19:09:01+00:00,195.2548,18.8,12.41,47.84626,-54.09684
2023-08-16 19:19:00+00:00,197.5181,18.8,12.41,47.84626,-54.09684
2023-08-16 19:29:00+00:00,207.3365,18.8,12.41,47.84626,-54.09684
2023-08-16 19:39:00+00:00,220.8731,18.79,12.41,47.84626,-54.09684
2023-08-16 19:49:00+00:00,225.1764,18.8,12.41,47.84626,-54.09684
2023-08-16 19:59:00+00:00,222.9698,18.8,12.41,47.84626,-54.09684
2023-08-16 20:09:00+00:00,224.4198,18.8,12.41,47.84626,-54.09684
2023-08-16 20:19:01+00:00,230.6031,18.8,12.41,47.84626,-54.09684
2023-08-16 20:29:01+00:00,238.1347,18.8,12.41,47.84626,-54.09684
2023-08-16 20:39:01+00:00,245.3181,18.8,12.41,47.84626,-54.09684
2023-08-16 20:49:01+00:00,249.9698,18.8,12.41,47.84626,-54.09684
2023-08-16 20:59:01+00:00,257.9831,18.8,12.41,47.84626,-54.09684
2023-08-16 21:09:01+00:00,267.6514,18.8,12.41,47.84626,-54.09684
2023-08-16 21:19:00+00:00,271.3481,18.78,12.41,47.84626,-54.09684
2023-08-16 21:29:00+00:00,272.6097,18.78,12.41,47.84626,-54.09684
2023-08-16 21:39:00+00:00,275.4997,18.75,12.41,47.84626,-54.09684
2023-08-16 21:49:00+00:00,282.9347,18.7,12.41,47.84626,-54.09684
2023-08-16 21:59:00+00:00,289.2747,18.74,12.41,47.84626,-54.09684
2023-08-16 22:09:00+00:00,291.3763,18.7,12.41,47.84626,-54.09684
2023-08-16 22:19:00+00:00,298.4479,18.7,12.33,47.84626,-54.09684
2023-08-16 22:29:00+00:00,310.038,18.7,12.33,47.84626,-54.09684
2023-08-16 22:39:00+00:00,315.308,18.7,12.33,47.84626,-54.09684
2023-08-16 22:49:00+00:00,320.8979,18.7,12.33,47.84626,-54.09684
2023-08-16 22:59:00+00:00,332.173,18.7,12.33,47.84626,-54.09684
2023-08-16 23:09:00+00:00,339.8314,18.7,12.33,47.84626,-54.09684
2023-08-16 23:19:00+00:00,340.0513,18.7,12.33,47.84626,-54.09684
2023-08-16 23:29:00+00:00,342.7096,18.7,12.33,47.84626,-54.09684
2023-08-16 23:39:00+00:00,347.6046,18.7,12.33,47.84626,-54.09684
2023-08-16 23:49:00+00:00,346.9763,18.7,12.33,47.84626,-54.09684
2023-08-16 23:59:00+00:00,345.798,18.7,12.33,47.84626,-54.09684
